Retour au catalogue

STARLINK-30287

ActifCommunicationsVLEO
NORAD 57709·PAYLOAD·🇺🇸 United States

Lancé Aug 27, 2023 depuis Cape Canaveral Space Force Station

Loading…

Prochains Passages (prochaines 24 heures)

TLE

FraisSource: CelesTrak SupGP

Époque: Sep 15, 2026, 02:42 UTC

1 57709C 23129M   26258.11298611  .00061085  00000+0  22119-2 0  2581
2 57709  43.0016 127.9580 0001901 269.2124 126.3510 15.27556442    13

Suivez STARLINK-30287 en temps réel avec AllMySat

Download on the App Store